Location: Unspecified
(51.6250°N, 0.8230°E)
Time: 10:29:05
(UTC+01:00)

Okean 3 - Pass Details

Date: 13 August 2020
Orbit: 576 x 601 km, 82.5° (Epoch: 23 September)

Event Time Altitude Azimuth Distance (km) Brightness Sun altitude
Rises 22:44:57 0° 350° (N) 2,855 8.2 -17.7°
Reaches altitude 10° 22:47:10 10° 351° (N) 1,951 7.1 -17.9°
Maximum altitude 22:51:30 82° 79° (E) 613 3.4 -18.3°
Enters shadow 22:52:59 41° 163° (SSE) 884 3.8 -18.4°
